Location: Newark
(44.6028°N, 124.0883°W)
Time: 09:48:31
(UTC+00:00)

Vanguard 1 - Pass Details

Date: 28 October 2019
Orbit: 652 x 3831 km, 34.2° (Epoch: 19 November)

Event Time Altitude Azimuth Distance (km) Brightness Sun altitude
Rises 00:58:21 0° 224° (SW) 3,159 14.0 1.6°
Reaches altitude 10° 01:00:44 10° 210° (SSW) 2,415 13.0 1.2°
Maximum altitude 01:05:22 27° 154° (SSE) 1,918 11.5 0.4°
Drops below altitude 10° 01:12:12 10° 101° (E) 3,670 12.5 -0.8°
Sets 01:16:51 0° 91° (E) 5,222 13.2 -1.5°
